| time (UTC) | temp C | wind direction | speed KPH | gust KPH | rain 1hr cm | rain 24hr cm | rain mn cm | humidity % | barometer mb |
| 20260506163029 | 17 | 307 | 0.0 | 8.0 | 0.00 | 0.00 | 0.00 | 71 | 1020.4 |
| 20260506161525 | 16 | 304 | 0.0 | 1.6 | 0.00 | 0.00 | 0.00 | 75 | 1020.5 |
| 20260506160023 | 16 | 304 | 0.0 | 4.8 | 0.00 | 0.00 | 0.00 | 76 | 1020.7 |
| 20260506154520 | 15 | 304 | 0.0 | 6.4 | 0.00 | 0.00 | 0.00 | 78 | 1020.8 |
| 20260506153016 | 13 | 304 | 0.0 | 4.8 | 0.00 | 0.00 | 0.00 | 83 | 1020.9 |
| 20260506151514 | 12 | 304 | 0.0 | 0.0 | 0.00 | 0.00 | 0.00 | 88 | 1020.9 |
| 20260506150009 | 11 | 304 | 0.0 | 4.8 | 0.00 | 0.00 | 0.00 | 89 | 1021.0 |
| 20260506144511 | 10 | 304 | 0.0 | 0.0 | 0.00 | 0.00 | 0.00 | 90 | 1020.9 |
| 20260506143004 | 9 | 304 | 0.0 | 0.0 | 0.00 | 0.00 | 0.00 | 89 | 1021.0 |
| 20260506141508 | 8 | 304 | 0.0 | 0.0 | 0.00 | 0.00 | 0.00 | 89 | 1020.8 |
| 20260506140002 | 7 | 304 | 0.0 | 0.0 | 0.00 | 0.00 | 0.00 | 89 | 1020.5 |
| 20260506134601 | 7 | 304 | 0.0 | 0.0 | 0.00 | 0.00 | 0.00 | 89 | 1020.5 |
| 20260506134500 | 7 | 304 | 0.0 | 0.0 | 0.00 | 0.00 | 0.00 | 88 | 1020.6 |
| 20260506133114 | 7 | 304 | 0.0 | 0.0 | 0.00 | 0.00 | 0.00 | 88 | 1020.4 |
| 20260506131616 | 7 | 304 | 0.0 | 0.0 | 0.00 | 0.00 | 0.00 | 88 | 1020.0 |
| 20260506130059 | 7 | 304 | 0.0 | 0.0 | 0.00 | 0.00 | 0.00 | 88 | 1019.8 |
| 20260506124558 | 7 | 304 | 0.0 | 0.0 | 0.00 | 0.00 | 0.00 | 88 | 1019.8 |
| 20260506123058 | 7 | 304 | 0.0 | 0.0 | 0.00 | 0.00 | 0.00 | 88 | 1020.0 |
| 20260506121559 | 7 | 304 | 0.0 | 0.0 | 0.00 | 0.00 | 0.00 | 88 | 1020.1 |
| 20260506120103 | 7 | 304 | 0.0 | 0.0 | 0.00 | 0.00 | 0.00 | 88 | 1020.1 |
| 20260506114554 | 7 | 304 | 0.0 | 0.0 | 0.00 | 0.00 | 0.00 | 88 | 1020.2 |
| 20260506113053 | 7 | 304 | 0.0 | 0.0 | 0.00 | 0.00 | 0.00 | 87 | 1020.1 |
| 20260506111552 | 7 | 304 | 0.0 | 0.0 | 0.00 | 0.00 | 0.00 | 88 | 1020.1 |
| 20260506110101 | 7 | 304 | 0.0 | 0.0 | 0.00 | 0.00 | 0.00 | 87 | 1020.0 |
| 20260506104602 | 7 | 304 | 0.0 | 0.0 | 0.00 | 0.00 | 0.00 | 87 | 1020.0 |
| 20260506103049 | 7 | 304 | 0.0 | 0.0 | 0.00 | 0.00 | 0.00 | 87 | 1020.0 |
| 20260506101546 | 8 | 304 | 0.0 | 0.0 | 0.00 | 0.00 | 0.00 | 87 | 1019.9 |
| 20260506100053 | 8 | 304 | 0.0 | 0.0 | 0.00 | 0.00 | 0.00 | 87 | 1020.1 |
| 20260506094550 | 8 | 304 | 0.0 | 0.0 | 0.00 | 0.00 | 0.00 | 87 | 1019.9 |
| 20260506093042 | 8 | 304 | 0.0 | 0.0 | 0.00 | 0.00 | 0.00 | 86 | 1020.0 |
| 20260506091540 | 8 | 304 | 0.0 | 0.0 | 0.00 | 0.00 | 0.00 | 86 | 1020.0 |
| 20260506090040 | 8 | 304 | 0.0 | 0.0 | 0.00 | 0.00 | 0.00 | 86 | 1020.2 |
| 20260506084610 | 9 | 304 | 0.0 | 0.0 | 0.00 | 0.00 | 0.00 | 86 | 1020.4 |
| 20260506083037 | 9 | 304 | 0.0 | 0.0 | 0.00 | 0.00 | 0.00 | 86 | 1020.2 |
| 20260506081545 | 9 | 304 | 0.0 | 0.0 | 0.00 | 0.00 | 0.00 | 86 | 1020.5 |
| 20260506073027 | 10 | 304 | 0.0 | 0.0 | 0.00 | 0.00 | 0.00 | 85 | 1020.1 |
| 20260506071526 | 10 | 304 | 0.0 | 0.0 | 0.00 | 0.00 | 0.00 | 84 | 1020.1 |
| 20260506061519 | 11 | 304 | 0.0 | 0.0 | 0.00 | 0.00 | 0.00 | 83 | 1019.7 |
| 20260506044518 | 12 | 304 | 0.0 | 3.2 | 0.00 | 0.00 | 0.00 | 81 | 1019.2 |
| 20260506043013 | 12 | 303 | 0.0 | 3.2 | 0.00 | 0.00 | 0.00 | 80 | 1019.1 |
| 20260506041511 | 12 | 303 | 0.0 | 6.4 | 0.00 | 0.00 | 0.00 | 80 | 1019.0 |
| 20260506040010 | 13 | 302 | 0.0 | 3.2 | 0.00 | 0.00 | 0.00 | 78 | 1018.8 |
| 20260506034509 | 13 | 302 | 0.0 | 4.8 | 0.00 | 0.00 | 0.00 | 78 | 1018.5 |
| 20260506033007 | 13 | 302 | 0.0 | 4.8 | 0.00 | 0.00 | 0.00 | 77 | 1018.3 |
| 20260506031505 | 13 | 302 | 0.0 | 4.8 | 0.00 | 0.00 | 0.00 | 76 | 1018.1 |
| 20260506030005 | 13 | 302 | 0.0 | 1.6 | 0.00 | 0.00 | 0.00 | 75 | 1017.8 |
| 20260506024504 | 14 | 303 | 0.0 | 6.4 | 0.00 | 0.00 | 0.00 | 75 | 1017.4 |
| 20260506023004 | 14 | 305 | 1.6 | 12.9 | 0.00 | 0.00 | 0.00 | 75 | 1017.4 |
| 20260506021503 | 15 | 306 | 4.8 | 12.9 | 0.00 | 0.00 | 0.00 | 75 | 1017.3 |
| 20260506020002 | 15 | 309 | 6.4 | 14.5 | 0.00 | 0.00 | 0.00 | 75 | 1017.0 |
| 20260506014501 | 15 | 315 | 6.4 | 20.9 | 0.00 | 0.00 | 0.00 | 74 | 1016.9 |
| 20260506013003 | 16 | 317 | 3.2 | 19.3 | 0.00 | 0.00 | 0.00 | 74 | 1017.0 |
| 20260506011617 | 16 | 308 | 6.4 | 20.9 | 0.00 | 0.00 | 0.00 | 74 | 1016.9 |
| 20260506004600 | 17 | 315 | 1.6 | 19.3 | 0.00 | 0.00 | 0.00 | 73 | 1016.9 |
| 20260506003059 | 17 | 350 | 6.4 | 16.1 | 0.00 | 0.00 | 0.00 | 72 | 1016.9 |
| 20260506001559 | 17 | 280 | 1.6 | 17.7 | 0.00 | 0.00 | 0.00 | 72 | 1016.7 |
| 20260506000100 | 17 | 305 | 4.8 | 17.7 | 0.00 | 0.00 | 0.00 | 72 | 1016.8 |
| 20260505234557 | 17 | 327 | 8.0 | 20.9 | 0.00 | 0.00 | 0.00 | 73 | 1016.9 |
| 20260505233104 | 17 | 280 | 4.8 | 19.3 | 0.00 | 0.00 | 0.00 | 73 | 1016.8 |
| 20260505231604 | 17 | 300 | 6.4 | 20.9 | 0.00 | 0.00 | 0.00 | 71 | 1016.9 |
| 20260505230048 | 17 | 271 | 8.0 | 19.3 | 0.00 | 0.00 | 0.00 | 68 | 1016.9 |
| 20260505224545 | 18 | 315 | 4.8 | 17.7 | 0.00 | 0.00 | 0.00 | 69 | 1016.9 |
| 20260505223044 | 17 | 275 | 6.4 | 20.9 | 0.00 | 0.00 | 0.00 | 68 | 1016.9 |
| 20260505221541 | 17 | 331 | 8.0 | 17.7 | 0.00 | 0.00 | 0.00 | 69 | 1017.1 |
| 20260505220140 | 17 | 297 | 4.8 | 19.3 | 0.00 | 0.00 | 0.00 | 68 | 1017.1 |
| 20260505214551 | 17 | 277 | 9.7 | 27.4 | 0.00 | 0.00 | 0.00 | 70 | 1017.6 |
| 20260505213040 | 16 | 313 | 6.4 | 22.5 | 0.00 | 0.00 | 0.00 | 70 | 1017.8 |
| 20260505211536 | 16 | 292 | 4.8 | 24.1 | 0.00 | 0.00 | 0.00 | 69 | 1017.8 |
| 20260505210034 | 17 | 284 | 4.8 | 24.1 | 0.00 | 0.00 | 0.00 | 67 | 1017.7 |
| 20260505204534 | 16 | 293 | 9.7 | 24.1 | 0.00 | 0.00 | 0.00 | 68 | 1017.7 |
| 20260505203051 | 16 | 273 | 9.7 | 24.1 | 0.00 | 0.00 | 0.00 | 68 | 1017.8 |
| 20260505201538 | 17 | 315 | 8.0 | 22.5 | 0.00 | 0.00 | 0.00 | 68 | 1018.0 |
| 20260505200030 | 16 | 302 | 6.4 | 19.3 | 0.00 | 0.00 | 0.00 | 69 | 1017.9 |
| 20260505194529 | 17 | 288 | 6.4 | 20.9 | 0.00 | 0.00 | 0.00 | 68 | 1018.0 |
| 20260505193032 | 16 | 257 | 4.8 | 20.9 | 0.00 | 0.00 | 0.00 | 67 | 1018.1 |
| 20260505191526 | 17 | 279 | 6.4 | 16.1 | 0.00 | 0.00 | 0.00 | 68 | 1018.1 |
| 20260505190027 | 17 | 302 | 6.4 | 19.3 | 0.00 | 0.00 | 0.00 | 67 | 1017.8 |
| 20260505184527 | 17 | 293 | 4.8 | 17.7 | 0.00 | 0.00 | 0.00 | 68 | 1017.9 |
| 20260505183025 | 17 | 292 | 3.2 | 19.3 | 0.00 | 0.00 | 0.00 | 68 | 1017.9 |
| 20260505181521 | 17 | 284 | 3.2 | 22.5 | 0.00 | 0.00 | 0.00 | 68 | 1017.8 |
| 20260505180021 | 17 | 289 | 4.8 | 14.5 | 0.00 | 0.00 | 0.00 | 69 | 1017.7 |
| 20260505174528 | 17 | 287 | 1.6 | 14.5 | 0.00 | 0.00 | 0.00 | 69 | 1017.7 |
| 20260505173018 | 16 | 299 | 3.2 | 17.7 | 0.00 | 0.00 | 0.00 | 68 | 1017.4 |
| 20260505171518 | 16 | 317 | 1.6 | 12.9 | 0.00 | 0.00 | 0.00 | 70 | 1017.4 |
| 20260505170020 | 17 | 300 | 4.8 | 12.9 | 0.00 | 0.00 | 0.00 | 65 | 1017.4 |